Showing default

DX 1, 40071

Orbit data source: Space-Track

DX 1, 40071 is a payload satellite owned by Dauria (CIS) in SSO that was launched on Tue, 08 Jul 2014 UTC via a SOYUZ-2-1B launch vehicle from the Tyuratam Missile And Space Complex (TTMTR). Payload-class satellites include a variety of spacecraft equipped with specific instruments for various scientific and technological missions. These include communications satellites like Starlink; space stations such as the ISS; scientific satellites like the Hubble; Earth observation satellites from companies like Planet Labs, Umbra, and HawkEye 360; GPS; miniature CubeSats for education and research; and military/defense satellites.

Loading next visibility...
Identifier
40071, 2014-037C
Orbit
SSO
Last TLE update
8 hours ago
Origin
Manufacturer
Dauria
Mission
Operational Commercial Technology
Bus & Motor
DX-1, Unknown motor
Mass
21 kg wet, 21 kg dry
Launch date (UTC)
2014-07-08 (11 years ago)
Launch vehicle
SOYUZ-2-1B
Launch site
Tyuratam Missile And Space Complex (TTMTR)
Object type
Payload
Rocket body
Debris
Shape & HBR
Box, 0.2 m
Radar Cross Section
0.060 m², Medium (>0.1 m² and < 1m²)

Expand to show TLE details & history

TLE from 8 hours ago
0 DX 1
1 40071U 14037C   25183.82285263  .00001321  00000-0  14977-3 0  9990
2 40071  98.3445 120.8363 0006896 339.3846  20.7090 14.88229173594196
Epoch: 2025-07-02T19:44Z
TLE epoch observation values (Epoch: 2025-07-02T19:44:54.467Z)
Latitude
0.00001°
Longitude
-96.48908°
Altitude
601.983 km
Speed
7.561 km/s
True Right ascension
08h 03m 20s
True Declination
0° 00' 00"
Sunlit
Object was in daylight at epoch
Visualization orbit readout
Latitude
-75.73273°
Longitude
-61.14298°
Altitude
628.203 km
Speed
7.545 km/s
Apparent Right ascension
04h 35m 50s
Apparent Declination
-66° 42' 16"
Sunlit
Object is in daylight
Visualization observer readout
Local Sidereal Time
15:13:07
Azimuth
196.645° SSW
Elevation
-60.826°
Doppler factor
1
Orbital elements
Apogee altitude
605.331 km
Perigee altitude
595.706 km
Semi-major axis
6,978.656 km
Eccentricity
0.00069
Inclination
98.3445°
RAAN
120.8363°
Arg. of periapsis
339.3846°
True anomaly
Unknown
Mean anomaly
20.709°
Eccentric anomaly
Unknown
Mean motion
3.72294 °/min
Orbital period
96.7 mins
BSTAR
0.00014977
Loading maneuver chart data...
Loading SW <> Apogee altitude chart data...
Loading historical data...
Loading historical data...
Loading historical data...
Loading historical data...
Loading historical data...
Loading historical data...
Loading historical data...

DX 1 Visibility forecast

Observer location: undefined°, undefined°

Span
Click to sort rows by Start time (UTC) header in descending order
Start Az.
Max El. time (UTC)
Max El. Az.
Max El.
End time (UTC)
End Az.
4 mins2025-07-03 07:38:56.590Z66.252° ENE2025-07-03 07:40:56.590Z98.154° ESE15.082°2025-07-03 07:42:56.590Z127.696° SE
6 mins2025-07-03 09:13:56.590Z349.426° N2025-07-03 09:16:56.590Z272.796° WNW32.839°2025-07-03 09:19:56.590Z221.352° SW
7 mins2025-07-03 20:04:56.590Z184.065° SSW2025-07-03 20:07:56.590Z267.134° W40.111°2025-07-03 20:11:56.590Z338.525° N
|